This is the latest recevied weather packets stored in our database for station/object 9M2MIN-1. If no packets are shown the sender has not sent any weather packets the latest 10 day(s).
| Time | Temp. | Humidity | Pressure | Rain* | Wind** | Luminosity | Snow |
|---|---|---|---|---|---|---|---|
| 1777798529 | 33.89° C | 64% | 1005.4 hPa | - | - | - | - |
| 1777797705 | 33.89° C | 64% | 1005.3 hPa | - | - | - | - |
| 1777797629 | 33.89° C | 64% | 1005.3 hPa | - | - | - | - |
| 1777796729 | 33.89° C | 65% | 1005.3 hPa | - | - | - | - |
| 1777796324 | 33.89° C | 64% | 1005.5 hPa | - | - | - | - |
| 1777796191 | 33.89° C | 64% | 1005.5 hPa | - | - | - | - |
| 1777795291 | 33.89° C | 63% | 1005.3 hPa | - | - | - | - |
| 1777794391 | 33.89° C | 65% | 1005.4 hPa | - | - | - | - |
| 1777793491 | 33.89° C | 66% | 1005.7 hPa | - | - | - | - |
| 1777792954 | 33.89° C | 65% | 1006 hPa | - | - | - | - |
| 1777792591 | 33.89° C | 65% | 1006 hPa | - | - | - | - |
| 1777791782 | 33.33° C | 67% | 1006.4 hPa | - | - | - | - |
| 1777791691 | 33.33° C | 67% | 1006.4 hPa | - | - | - | - |
| 1777791137 | 33.89° C | 67% | 1006.6 hPa | - | - | - | - |
| 1777790791 | 33.89° C | 67% | 1006.6 hPa | - | - | - | - |
| 1777789937 | 33.33° C | 68% | 1006.9 hPa | - | - | - | - |
| 1777789891 | 33.33° C | 68% | 1006.9 hPa | - | - | - | - |
| 1777789124 | 33.89° C | 65% | 1007.1 hPa | - | - | - | - |
| 1777788991 | 33.89° C | 65% | 1007.1 hPa | - | - | - | - |
| 1777788175 | 33.89° C | 67% | 1007.4 hPa | - | - | - | - |
| 1777788090 | 33.89° C | 67% | 1007.4 hPa | - | - | - | - |
| 1777787259 | 33.33° C | 71% | 1007.7 hPa | - | - | - | - |
| 1777787190 | 33.33° C | 71% | 1007.7 hPa | - | - | - | - |
| 1777786290 | 32.78° C | 74% | 1008.1 hPa | - | - | - | - |
| 1777786032 | 32.78° C | 74% | 1008.4 hPa | - | - | - | - |
* Rain since midnight (hover to see other rain measurements)
** Current wind speed in m/s (hover to see current wind gust speed)